Location: McFarlands Corners
(41.4117°N, 81.3382°W)
Time: 21:35:43
(UTC+00:00)

SR - Pass Details

Date: 17 February 2026
Orbit: 573 x 848 km, 66.7° (Epoch: 6 March)

Event Time Altitude Azimuth Distance (km) Brightness Sun altitude
Rises 10:20:55 0° 221° (SW) 2,766 - -22.5°
Reaches altitude 10° 10:23:08 10° 227° (SW) 1,878 - -22.1°
Maximum altitude 10:27:14 52° 304° (NW) 737 - -21.3°
Exits shadow 10:27:31 51° 320° (NW) 748 ? -21.3°
Drops below altitude 10° 10:31:31 10° 21° (NNE) 1,968 ? -20.5°
Sets 10:33:54 0° 26° (NNE) 2,913 ? -20.1°
